Clarksville, TN

2:56 AM CST on November 18, 2019 (GMT -0600)
Outlaw

Weather History for KCKV - October, 2019

Change the Weather History Date:

Saturday, October 12, 2019

  Actual Average Record
Temperature  
Mean Temperature 48 °F 60 °F  
Max Temperature 60 °F 73 °F 88 °F (1963)
Min Temperature 37 °F 48 °F 29 °F (1988)
Degree Days  
Heating Degree Days 16    
Month to date heating degree days 28  
Since 1 July heating degree days 28  
Cooling Degree Days 0    
Month to date cooling degree days 65  
Year to date cooling degree days 1785  
Moisture  
Dew Point 37 °F    
Average Humidity 70    
Maximum Humidity 100    
Minimum Humidity 37    
Precipitation  
Precipitation 0.00 in 0.13 in 0.90 in (1983)
Month to date precipitation 3.24 1.54  
Year to date precipitation 43.65 38.20  
Sea Level Pressure  
Sea Level Pressure 30.18 in    
Wind  
Wind Speed 6 mph ()    
Max Wind Speed 17 mph    
Max Gust Speed 18 mph    
Visibility 10.0 miles    
Events      
T = Trace of Precipitation, MM = Missing Value Source: Averaged Metar Reports

Daily Weather History Graph

Daily Weather History Graph

Search for Another Location

Airport or City:

Astronomy

Oct. 12, 2019 Rise Set
Actual Time 6:54 AM CDT 6:17 PM CDT
Civil Twilight 6:28 AM CDT 6:43 PM CDT
Nautical Twilight 5:58 AM CDT 7:13 PM CDT
Astronomical Twilight 5:28 AM CDT 7:43 PM CDT
Moon 6:10 PM CDT (10/12) 5:35 AM CDT (10/12)
Length of Visible Light 12h 15m
Length of Day
11h 23m
Waxing Gibbous, 99% of the Moon is Illuminated
Oct 12
Waxing Gibbous
Oct 13
Full
Oct 21
Last Quarter
Oct 27
New
Nov 4
First Quarter

Hourly Weather History & Observations

Time (CDT) Temp. Windchill Dew Point Humidity Pressure Visibility Wind Dir Wind Speed Gust Speed Precip Events Conditions
12:41 AM 46.0 °F 39.0 °F 39.9 °F 79% 30.19 in 10.0 mi NNW 17.3 mph - N/A   Overcast
12:52 AM 46.0 °F 40.2 °F 39.9 °F 79% 30.19 in 10.0 mi NNW 12.7 mph - N/A   Overcast
1:52 AM 45.0 °F 39.7 °F 39.0 °F 80% 30.20 in 10.0 mi NNW 10.4 mph - N/A   Mostly Cloudy
2:52 AM 42.1 °F 37.7 °F 39.0 °F 89% 30.20 in 10.0 mi NNW 6.9 mph - N/A   Clear
3:52 AM 41.0 °F 38.0 °F 37.9 °F 89% 30.20 in 10.0 mi NNW 4.6 mph - N/A   Clear
4:52 AM 39.9 °F 36.7 °F 37.0 °F 89% 30.21 in 10.0 mi NW 4.6 mph - N/A   Clear
5:52 AM 39.0 °F - 37.9 °F 96% 30.22 in 10.0 mi Calm Calm - N/A   Clear
6:52 AM 37.9 °F 35.5 °F 37.0 °F 97% 30.24 in 10.0 mi WNW 3.5 mph - N/A   Clear
7:52 AM 41.0 °F 39.0 °F 39.0 °F 93% 30.25 in 10.0 mi NW 3.5 mph - N/A   Clear
8:52 AM 46.0 °F 44.8 °F 37.9 °F 73% 30.25 in 10.0 mi North 3.5 mph - N/A   Clear
9:52 AM 48.9 °F - 34.0 °F 56% 30.24 in 10.0 mi ENE 5.8 mph - N/A   Clear
10:52 AM 50.0 °F - 33.1 °F 52% 30.24 in 10.0 mi NNE 5.8 mph - N/A   Clear
11:52 AM 53.1 °F - 34.0 °F 48% 30.24 in 10.0 mi Variable 5.8 mph - N/A   Clear
12:52 PM 54.0 °F - 34.0 °F 47% 30.21 in 10.0 mi WNW 5.8 mph - N/A   Clear
1:52 PM 55.9 °F - 35.1 °F 45% 30.18 in 10.0 mi Variable 3.5 mph - N/A   Clear
2:52 PM 57.9 °F - 33.1 °F 39% 30.16 in 10.0 mi Variable 4.6 mph - N/A   Clear
3:52 PM 59.0 °F - 34.0 °F 39% 30.14 in 10.0 mi Variable 3.5 mph - N/A   Clear
4:52 PM 59.0 °F - 33.1 °F 38% 30.12 in 10.0 mi ESE 4.6 mph - N/A   Clear
5:52 PM 55.9 °F - 34.0 °F 44% 30.09 in 10.0 mi SSE 5.8 mph - N/A   Clear
6:52 PM 51.1 °F - 37.9 °F 61% 30.11 in 10.0 mi Calm Calm - N/A   Clear
7:52 PM 46.0 °F - 37.9 °F 73% 30.12 in 10.0 mi Calm Calm - N/A   Clear
8:52 PM 44.1 °F - 39.0 °F 82% 30.12 in 10.0 mi Calm Calm - N/A   Clear
9:52 PM 42.1 °F - 39.0 °F 89% 30.10 in 10.0 mi Calm Calm - N/A   Clear
10:52 PM 41.0 °F - 39.0 °F 93% 30.09 in 10.0 mi Calm Calm - N/A   Clear
11:52 PM 39.9 °F - 37.0 °F 89% 30.08 in 10.0 mi Calm Calm - N/A   Clear